When you browse on this site, cookies collect data to enhance your experience and personalize the content and advertising you see.
Visit our Privacy Policy to learn more. By continuing to use the site, you agree to this use of cookies and data.
  • In Hungary
  • List of Countries
  • For 7 days
  • Water Temperature
  • Satellite Maps
  • Weather Map
  • News
  • Weather Widgets
  • user-avatar
    Login

    Hourly Weather Marechal Candido Rondon

    Today, 17 January, Thursday

    Time Temperature Precipitation Wind Pressure Humidity
    00:00 +27°C° 0 mm 2 mps 723 mmHg 74%
    01:00 +27°C° 0 mm 2 mps 723 mmHg 77%
    02:00 +26°C° 0 mm 2 mps 723 mmHg 80%
    03:00 +26°C° 0 mm 2 mps 723 mmHg 82%
    04:00 +26°C° 0 mm 2 mps 723 mmHg 85%
    05:00 +25°C° 0 mm 2 mps 723 mmHg 87%
    06:00 +27°C° 0.1 mm 2 mps 724 mmHg 81%
    07:00 +29°C° 0.1 mm 3 mps 724 mmHg 76%
    08:00 +30°C° 0.1 mm 3 mps 725 mmHg 70%
    09:00 +33°C° 0.8 mm 3 mps 725 mmHg 66%
    10:00 +34°C° 0.8 mm 3 mps 725 mmHg 62%
    11:00 +36°C° 0.8 mm 3 mps 725 mmHg 58%
    12:00 +36°C° 0 mm 2 mps 725 mmHg 54%
    13:00 +37°C° 0 mm 2 mps 725 mmHg 50%
    14:00 +37°C° 0 mm 2 mps 724 mmHg 46%
    15:00 +36°C° 0 mm 2 mps 724 mmHg 51%
    16:00 +35°C° 0 mm 2 mps 723 mmHg 55%
    17:00 +34°C° 0 mm 2 mps 723 mmHg 60%
    18:00 +32°C° 0 mm 2 mps 723 mmHg 63%
    19:00 +31°C° 0 mm 2 mps 723 mmHg 67%
    20:00 +29°C° 0 mm 2 mps 723 mmHg 71%
    21:00 +29°C° 0 mm 2 mps 723 mmHg 72%
    22:00 +28°C° 0 mm 2 mps 723 mmHg 73%
    23:00 +28°C° 0 mm 2 mps 723 mmHg 74%

    Tomorrow, 18 January, Friday

    Time Temperature Precipitation Wind Pressure Humidity
    00:00 +27°C° 0 mm 2 mps 723 mmHg 75%
    01:00 +27°C° 0 mm 2 mps 723 mmHg 77%
    02:00 +26°C° 0 mm 2 mps 722 mmHg 78%
    03:00 +26°C° 0 mm 2 mps 723 mmHg 79%
    04:00 +26°C° 0 mm 2 mps 723 mmHg 80%
    05:00 +25°C° 0 mm 3 mps 723 mmHg 80%
    06:00 +27°C° 0 mm 3 mps 723 mmHg 77%
    07:00 +28°C° 0 mm 3 mps 724 mmHg 73%
    08:00 +30°C° 0 mm 3 mps 724 mmHg 70%
    09:00 +31°C° 0 mm 3 mps 724 mmHg 65%
    10:00 +34°C° 0 mm 3 mps 724 mmHg 60%
    11:00 +35°C° 0 mm 3 mps 724 mmHg 55%
    12:00 +33°C° 2.5 mm 3 mps 724 mmHg 65%
    13:00 +30°C° 2.5 mm 3 mps 723 mmHg 75%
    14:00 +28°C° 2.5 mm 4 mps 722 mmHg 85%
    15:00 +28°C° 1 mm 3 mps 722 mmHg 84%
    16:00 +28°C° 1 mm 2 mps 721 mmHg 83%
    17:00 +28°C° 1 mm 1 mps 721 mmHg 82%
    18:00 +27°C° 0 mm 1 mps 721 mmHg 82%
    19:00 +26°C° 0 mm 1 mps 722 mmHg 82%
    20:00 +26°C° 0 mm 1 mps 722 mmHg 82%
    21:00 +25°C° 0 mm 1 mps 722 mmHg 83%
    22:00 +25°C° 0 mm 1 mps 722 mmHg 83%
    23:00 +25°C° 0 mm 1 mps 722 mmHg 84%

    Day after tomorrow, 19 January, Saturday

    Time Temperature Precipitation Wind Pressure Humidity
    00:00 +25°C° 0 mm 1 mps 722 mmHg 83%
    01:00 +24°C° 0 mm 1 mps 721 mmHg 83%
    02:00 +24°C° 0 mm 1 mps 721 mmHg 82%
    03:00 +22°C° 0 mm 0 mps 721 mmHg 84%
    04:00 +22°C° 0 mm 0 mps 721 mmHg 86%
    05:00 +21°C° 0 mm 0 mps 721 mmHg 88%
    06:00 +23°C° 0 mm 0 mps 722 mmHg 82%
    07:00 +25°C° 0 mm 0 mps 723 mmHg 77%
    08:00 +27°C° 0 mm 0 mps 723 mmHg 71%
    09:00 +31°C° 0 mm 1 mps 723 mmHg 66%
    10:00 +32°C° 0 mm 1 mps 724 mmHg 60%
    11:00 +34°C° 0 mm 1 mps 724 mmHg 54%
    12:00 +35°C° 1 mm 2 mps 723 mmHg 58%
    13:00 +34°C° 1 mm 2 mps 722 mmHg 61%
    14:00 +34°C° 1 mm 2 mps 722 mmHg 64%
    15:00 +31°C° 2.4 mm 2 mps 721 mmHg 72%
    16:00 +30°C° 2.4 mm 2 mps 721 mmHg 79%
    17:00 +28°C° 2.4 mm 2 mps 721 mmHg 87%
    18:00 +28°C° 0 mm 2 mps 721 mmHg 87%
    19:00 +27°C° 0 mm 1 mps 721 mmHg 88%
    20:00 +26°C° 0 mm 1 mps 722 mmHg 88%
    21:00 +26°C° 0 mm 1 mps 722 mmHg 89%
    22:00 +25°C° 0 mm 1 mps 722 mmHg 89%
    23:00 +25°C° 0 mm 1 mps 722 mmHg 90%

    20 January, Sunday

    Time Temperature Precipitation Wind Pressure Humidity
    00:00 +22°C° 0 mm 0 mps 722 mmHg 91%
    01:00 +22°C° 0 mm 0 mps 721 mmHg 91%
    02:00 +22°C° 0 mm 0 mps 721 mmHg 92%
    03:00 +22°C° 0 mm 0 mps 721 mmHg 92%
    04:00 +22°C° 0 mm 0 mps 721 mmHg 92%
    05:00 +21°C° 0 mm 0 mps 721 mmHg 93%
    06:00 +25°C° 0 mm 1 mps 722 mmHg 86%
    07:00 +27°C° 0 mm 1 mps 723 mmHg 79%
    08:00 +29°C° 0 mm 1 mps 723 mmHg 72%
    09:00 +30°C° 1.2 mm 1 mps 723 mmHg 74%
    10:00 +30°C° 1.2 mm 2 mps 723 mmHg 76%
    11:00 +31°C° 1.2 mm 2 mps 723 mmHg 77%
    12:00 +32°C° 0.4 mm 2 mps 722 mmHg 70%
    13:00 +34°C° 0.4 mm 2 mps 722 mmHg 62%
    14:00 +35°C° 0.4 mm 2 mps 722 mmHg 55%
    15:00 +33°C° 0.2 mm 1 mps 722 mmHg 58%
    16:00 +33°C° 0.2 mm 1 mps 721 mmHg 61%
    17:00 +32°C° 0.2 mm 1 mps 721 mmHg 64%
    18:00 +30°C° 0.3 mm 1 mps 721 mmHg 72%
    19:00 +28°C° 0.3 mm 2 mps 721 mmHg 79%
    20:00 +26°C° 0.3 mm 2 mps 721 mmHg 86%
    21:00 +26°C° 0 mm 2 mps 721 mmHg 87%
    22:00 +26°C° 0 mm 2 mps 721 mmHg 88%
    23:00 +25°C° 0 mm 2 mps 722 mmHg 89%

    21 January, Monday

    Time Temperature Precipitation Wind Pressure Humidity
    00:00 +25°C° 0 mm 2 mps 721 mmHg 89%
    01:00 +24°C° 0 mm 2 mps 721 mmHg 89%
    02:00 +24°C° 0 mm 2 mps 721 mmHg 89%
    03:00 +24°C° 0 mm 2 mps 721 mmHg 90%
    04:00 +24°C° 0 mm 2 mps 721 mmHg 91%
    05:00 +24°C° 0 mm 2 mps 721 mmHg 92%
    06:00 +25°C° 0.1 mm 2 mps 722 mmHg 88%
    07:00 +27°C° 0.1 mm 2 mps 722 mmHg 84%
    08:00 +29°C° 0.1 mm 2 mps 723 mmHg 80%
    09:00 +30°C° 1.2 mm 2 mps 723 mmHg 75%
    10:00 +31°C° 1.2 mm 2 mps 723 mmHg 70%
    11:00 +34°C° 1.2 mm 2 mps 722 mmHg 65%
    12:00 +35°C° 0.5 mm 2 mps 722 mmHg 60%
    13:00 +36°C° 0.5 mm 2 mps 722 mmHg 54%
    14:00 +36°C° 0.5 mm 1 mps 721 mmHg 49%
    15:00 +34°C° 0.2 mm 1 mps 721 mmHg 56%
    16:00 +32°C° 0.2 mm 1 mps 721 mmHg 64%
    17:00 +30°C° 0.2 mm 1 mps 721 mmHg 72%
    18:00 +29°C° 0.2 mm 1 mps 721 mmHg 75%
    19:00 +28°C° 0.2 mm 1 mps 721 mmHg 78%
    20:00 +28°C° 0.2 mm 2 mps 722 mmHg 81%
    21:00 +27°C° 0.8 mm 2 mps 722 mmHg 84%
    22:00 +27°C° 0.8 mm 2 mps 722 mmHg 86%
    23:00 +26°C° 0.8 mm 3 mps 722 mmHg 88%

    22 January, Tuesday

    Time Temperature Precipitation Wind Pressure Humidity
    00:00 +26°C° 0.2 mm 2 mps 722 mmHg 89%
    01:00 +25°C° 0.2 mm 2 mps 722 mmHg 91%
    02:00 +25°C° 0.2 mm 2 mps 721 mmHg 92%
    03:00 +25°C° 1.2 mm 2 mps 722 mmHg 93%
    04:00 +25°C° 1.2 mm 2 mps 722 mmHg 95%
    05:00 +24°C° 1.2 mm 2 mps 722 mmHg 96%
    06:00 +26°C° 0.9 mm 2 mps 722 mmHg 91%
    07:00 +28°C° 0.9 mm 2 mps 723 mmHg 86%
    08:00 +29°C° 0.9 mm 2 mps 723 mmHg 81%
    09:00 +31°C° 1 mm 2 mps 723 mmHg 72%
    10:00 +34°C° 1 mm 2 mps 723 mmHg 63%
    11:00 +36°C° 1 mm 2 mps 723 mmHg 54%
    12:00 +36°C° 0.6 mm 2 mps 723 mmHg 55%
    13:00 +36°C° 0.6 mm 2 mps 722 mmHg 56%
    14:00 +35°C° 0.6 mm 2 mps 722 mmHg 58%
    15:00 +34°C° 0.3 mm 2 mps 721 mmHg 61%
    16:00 +34°C° 0.3 mm 2 mps 721 mmHg 65%
    17:00 +33°C° 0.3 mm 3 mps 721 mmHg 69%
    18:00 +31°C° 0 mm 3 mps 721 mmHg 71%
    19:00 +30°C° 0 mm 3 mps 721 mmHg 74%
    20:00 +29°C° 0 mm 3 mps 721 mmHg 76%
    21:00 +28°C° 0 mm 3 mps 722 mmHg 78%
    22:00 +28°C° 0 mm 3 mps 722 mmHg 80%
    23:00 +27°C° 0 mm 3 mps 722 mmHg 82%
    Show more